Previsão horária em Centnerovka

Hoje, 30 Julho, Sexta-feira

Tempo Temperatura Precipitação Vento Pressão Humidade
00:00 +19°C° 0.2 mm 1 m/s 737 mmHg 96%
01:00 +19°C° 0.2 mm 1 m/s 737 mmHg 97%
02:00 +19°C° 0.2 mm 1 m/s 737 mmHg 97%
03:00 +18°C° 0.1 mm 2 m/s 737 mmHg 97%
04:00 +18°C° 0.1 mm 2 m/s 737 mmHg 97%
05:00 +18°C° 0.1 mm 2 m/s 737 mmHg 97%
06:00 +19°C° 0 mm 2 m/s 737 mmHg 92%
07:00 +20°C° 0 mm 3 m/s 737 mmHg 87%
08:00 +21°C° 0 mm 3 m/s 738 mmHg 82%
09:00 +22°C° 0.1 mm 4 m/s 738 mmHg 74%
10:00 +23°C° 0.1 mm 4 m/s 738 mmHg 66%
11:00 +25°C° 0.1 mm 5 m/s 738 mmHg 59%
12:00 +25°C° 0 mm 5 m/s 737 mmHg 54%
13:00 +26°C° 0 mm 5 m/s 737 mmHg 49%
14:00 +27°C° 0 mm 5 m/s 737 mmHg 45%
15:00 +26°C° 0 mm 5 m/s 737 mmHg 49%
16:00 +23°C° 0 mm 4 m/s 737 mmHg 53%
17:00 +22°C° 0 mm 4 m/s 737 mmHg 57%
18:00 +21°C° 0 mm 3 m/s 737 mmHg 58%
19:00 +20°C° 0 mm 3 m/s 737 mmHg 60%
20:00 +19°C° 0 mm 3 m/s 737 mmHg 62%
21:00 +19°C° 0 mm 3 m/s 737 mmHg 63%
22:00 +18°C° 0 mm 3 m/s 737 mmHg 64%
23:00 +18°C° 0 mm 4 m/s 737 mmHg 66%

Amanhã, 31 Julho, Sábado

Tempo Temperatura Precipitação Vento Pressão Humidade
00:00 +17°C° 0 mm 4 m/s 737 mmHg 71%
01:00 +16°C° 0 mm 3 m/s 737 mmHg 76%
02:00 +14°C° 0 mm 3 m/s 737 mmHg 81%
03:00 +14°C° 0 mm 4 m/s 737 mmHg 82%
04:00 +14°C° 0 mm 4 m/s 737 mmHg 82%
05:00 +14°C° 0 mm 4 m/s 737 mmHg 83%
06:00 +16°C° 0 mm 5 m/s 737 mmHg 74%
07:00 +19°C° 0 mm 5 m/s 737 mmHg 65%
08:00 +21°C° 0 mm 6 m/s 737 mmHg 56%
09:00 +22°C° 0 mm 7 m/s 738 mmHg 51%
10:00 +24°C° 0 mm 7 m/s 738 mmHg 46%
11:00 +26°C° 0 mm 7 m/s 738 mmHg 40%
12:00 +27°C° 0 mm 7 m/s 738 mmHg 38%
13:00 +27°C° 0 mm 7 m/s 738 mmHg 37%
14:00 +28°C° 0 mm 6 m/s 738 mmHg 35%
15:00 +28°C° 0 mm 6 m/s 738 mmHg 37%
16:00 +27°C° 0 mm 5 m/s 738 mmHg 40%
17:00 +27°C° 0 mm 4 m/s 738 mmHg 42%
18:00 +25°C° 0 mm 3 m/s 738 mmHg 49%
19:00 +23°C° 0 mm 2 m/s 738 mmHg 56%
20:00 +21°C° 0 mm 1 m/s 738 mmHg 62%
21:00 +21°C° 0 mm 1 m/s 738 mmHg 64%
22:00 +20°C° 0 mm 1 m/s 738 mmHg 65%
23:00 +19°C° 0 mm 2 m/s 738 mmHg 67%

Depois de amanhã, 1 Agosto, Domingo

Tempo Temperatura Precipitação Vento Pressão Humidade
00:00 +19°C° 0 mm 2 m/s 738 mmHg 70%
01:00 +19°C° 0 mm 2 m/s 738 mmHg 74%
02:00 +19°C° 0 mm 3 m/s 738 mmHg 77%
03:00 +18°C° 1.7 mm 2 m/s 738 mmHg 84%
04:00 +18°C° 1.7 mm 2 m/s 738 mmHg 90%
05:00 +17°C° 1.7 mm 2 m/s 738 mmHg 97%
06:00 +18°C° 0.4 mm 2 m/s 738 mmHg 96%
07:00 +18°C° 0.4 mm 3 m/s 738 mmHg 96%
08:00 +19°C° 0.4 mm 4 m/s 738 mmHg 95%
09:00 +20°C° 0.1 mm 4 m/s 738 mmHg 87%
10:00 +22°C° 0.1 mm 4 m/s 738 mmHg 79%
11:00 +23°C° 0.1 mm 4 m/s 738 mmHg 71%
12:00 +25°C° 0 mm 4 m/s 738 mmHg 64%
13:00 +27°C° 0 mm 4 m/s 738 mmHg 57%
14:00 +28°C° 0 mm 4 m/s 738 mmHg 49%
15:00 +28°C° 0 mm 4 m/s 738 mmHg 49%
16:00 +28°C° 0 mm 4 m/s 738 mmHg 48%
17:00 +27°C° 0 mm 4 m/s 738 mmHg 47%
18:00 +25°C° 0 mm 3 m/s 738 mmHg 54%
19:00 +22°C° 0 mm 3 m/s 738 mmHg 60%
20:00 +20°C° 0 mm 3 m/s 738 mmHg 66%
21:00 +20°C° 0 mm 2 m/s 738 mmHg 67%
22:00 +19°C° 0 mm 2 m/s 738 mmHg 68%
23:00 +19°C° 0 mm 2 m/s 739 mmHg 69%

2 Agosto, Segunda-feira

Tempo Temperatura Precipitação Vento Pressão Humidade
00:00 +18°C° 0 mm 2 m/s 738 mmHg 72%
01:00 +17°C° 0 mm 2 m/s 738 mmHg 76%
02:00 +16°C° 0 mm 1 m/s 738 mmHg 79%
03:00 +16°C° 0 mm 1 m/s 738 mmHg 79%
04:00 +16°C° 0 mm 1 m/s 738 mmHg 78%
05:00 +18°C° 0 mm 1 m/s 738 mmHg 77%
06:00 +18°C° 0.1 mm 1 m/s 737 mmHg 75%
07:00 +19°C° 0.1 mm 1 m/s 737 mmHg 74%
08:00 +20°C° 0.1 mm 1 m/s 737 mmHg 72%
09:00 +20°C° 0.1 mm 2 m/s 737 mmHg 74%
10:00 +20°C° 0.1 mm 2 m/s 736 mmHg 76%
11:00 +20°C° 0.1 mm 3 m/s 736 mmHg 78%
12:00 +21°C° 0.5 mm 3 m/s 736 mmHg 79%
13:00 +21°C° 0.5 mm 4 m/s 735 mmHg 81%
14:00 +22°C° 0.5 mm 4 m/s 735 mmHg 82%
15:00 +22°C° 0.6 mm 4 m/s 735 mmHg 82%
16:00 +21°C° 0.6 mm 4 m/s 735 mmHg 83%
17:00 +21°C° 0.6 mm 4 m/s 735 mmHg 83%
18:00 +20°C° 0 mm 4 m/s 735 mmHg 87%
19:00 +18°C° 0 mm 4 m/s 735 mmHg 90%
20:00 +17°C° 0 mm 4 m/s 736 mmHg 94%
21:00 +15°C° 0 mm 4 m/s 736 mmHg 94%
22:00 +15°C° 0 mm 4 m/s 737 mmHg 95%
23:00 +14°C° 0 mm 4 m/s 737 mmHg 95%

3 Agosto, Terça-feira

Tempo Temperatura Precipitação Vento Pressão Humidade
00:00 +13°C° 0 mm 3 m/s 738 mmHg 96%
01:00 +13°C° 0 mm 3 m/s 738 mmHg 96%
02:00 +13°C° 0 mm 2 m/s 738 mmHg 96%
03:00 +13°C° 0 mm 2 m/s 738 mmHg 97%
04:00 +13°C° 0 mm 2 m/s 739 mmHg 97%
05:00 +12°C° 0 mm 3 m/s 739 mmHg 97%
06:00 +14°C° 0 mm 3 m/s 739 mmHg 89%
07:00 +15°C° 0 mm 4 m/s 740 mmHg 81%
08:00 +18°C° 0 mm 4 m/s 740 mmHg 73%
09:00 +19°C° 0 mm 4 m/s 740 mmHg 64%
10:00 +21°C° 0 mm 5 m/s 741 mmHg 56%
11:00 +22°C° 0 mm 5 m/s 741 mmHg 48%
12:00 +22°C° 0 mm 5 m/s 741 mmHg 48%
13:00 +22°C° 0 mm 5 m/s 741 mmHg 48%
14:00 +22°C° 0 mm 5 m/s 741 mmHg 48%
15:00 +22°C° 0 mm 4 m/s 742 mmHg 50%
16:00 +21°C° 0 mm 4 m/s 742 mmHg 52%
17:00 +21°C° 0 mm 4 m/s 742 mmHg 54%
18:00 +19°C° 0.1 mm 3 m/s 742 mmHg 63%
19:00 +18°C° 0.1 mm 3 m/s 742 mmHg 72%
20:00 +16°C° 0.1 mm 2 m/s 743 mmHg 81%
21:00 +15°C° 0 mm 2 m/s 743 mmHg 85%
22:00 +15°C° 0 mm 2 m/s 743 mmHg 89%
23:00 +14°C° 0 mm 2 m/s 743 mmHg 93%

4 Agosto, Quarta-feira

Tempo Temperatura Precipitação Vento Pressão Humidade
00:00 +14°C° 0 mm 2 m/s 744 mmHg 94%
01:00 +13°C° 0 mm 2 m/s 744 mmHg 95%
02:00 +13°C° 0 mm 1 m/s 744 mmHg 96%
03:00 +13°C° 0 mm 1 m/s 744 mmHg 95%
04:00 +13°C° 0 mm 1 m/s 745 mmHg 95%
05:00 +13°C° 0 mm 1 m/s 745 mmHg 95%
06:00 +15°C° 0 mm 1 m/s 745 mmHg 89%
07:00 +16°C° 0 mm 1 m/s 745 mmHg 84%
08:00 +17°C° 0 mm 0 m/s 746 mmHg 79%
09:00 +20°C° 0.1 mm 1 m/s 746 mmHg 72%
10:00 +22°C° 0.1 mm 1 m/s 746 mmHg 65%
11:00 +23°C° 0.1 mm 1 m/s 746 mmHg 58%
12:00 +23°C° 0.4 mm 1 m/s 746 mmHg 58%
13:00 +24°C° 0.4 mm 1 m/s 746 mmHg 58%
14:00 +24°C° 0.4 mm 1 m/s 746 mmHg 58%
15:00 +23°C° 0.6 mm 1 m/s 746 mmHg 61%
16:00 +23°C° 0.6 mm 1 m/s 746 mmHg 63%
17:00 +21°C° 0.6 mm 0 m/s 745 mmHg 66%
18:00 +21°C° 0 mm 1 m/s 745 mmHg 71%
19:00 +20°C° 0 mm 1 m/s 746 mmHg 76%
20:00 +17°C° 0 mm 2 m/s 746 mmHg 81%
21:00 +16°C° 0 mm 2 m/s 745 mmHg 83%
22:00 +16°C° 0 mm 2 m/s 745 mmHg 85%
23:00 +15°C° 0 mm 2 m/s 745 mmHg 87%
Mostrar mais

Necessitamos do seu Consentimento

A Meteoprog e os seus Fornecedores de Serviços podem armazenar e aceder a dados pessoais como cookies, identificadores do dispositivo ou outras tecnologias semelhantes existentes no seu dispositivo e processar estes dados para personalizar conteúdos e anúncios, assim como funcionalidades nas redes sociais e análise de tráfego.

  • Armazenar e/ou aceder a informações no seu dispositivo

    Os cookies, identificadores do dispositivo ou outras informações podem ser armazenados ou acedidos no seu dispositivo, para os fins acima indicados.

  • Anúncios e conteúdos personalizados, medição de anúncios e conteúdos, dados sobre o público-alvo e desenvolvimento de produtos

    Os anúncios e os conteúdos podem ser personalizados com base num perfil. Podem ser adicionados dados adicionais para uma maior personalização dos anúncios e dos conteúdos. A eficácia dos anúncios e dos conteúdos pode ser medida. Podem ser obtidas informações sobre o público que visualizou os anúncios e os conteúdos. Estes dados podem ser usados para desenvolver ou melhorar sistemas, softwares ou a experiência do utilizador.

Ao clicar em "Eu concordo”, permitirá o uso de cookies, identificadores do dispositivo e web beacons mencionados ou outras tecnologias semelhantes. As configurações do navegador do seu dispositivo podem ser alteradas.

Para certos fins, podem ser invocados interesses legítimos ao invés de consentimento. Pode ler mais informação sobre este assunto na nossa Política de Privacidade e Cookies.